Вернуться в каталог

STARLINK-31298

АктивенСвязьVLEO
NORAD 59167·PAYLOAD·🇺🇸 United States

Запущен Mar 4, 2024 с Cape Canaveral Space Force Station

Loading…

Ближайшие Пролёты (ближайшие 24 часа)

TLE

СвежийSource: CelesTrak SupGP

Эпоха: Sep 14, 2026, 20:51 UTC

1 59167C 24044R   26257.86923611 -.00048190  00000+0 -17458-2 0  2577
2 59167  42.9992 118.6245 0001375 270.8742 257.3375 15.27594988    19

Отслеживайте STARLINK-31298 в реальном времени с AllMySat

Download on the App Store